Airfield :
LOGIN :

Register | Disclaimer

   EN    FR    IT 

 










Legend :    VFR   Marginal VFR   IFR   Intensive IFR   Very Intensive IFR
Visi :
Ceiling :
>= 8 km
>= 3000ft
5 to 8 km
1000 to 3000 ft
1500m to 5 km
500 to 1000 ft
800 to 1500m
200 to 500 ft
< 800m
< 200 ft
Symbols :   Thunderstorms  Fog  Heavy snow  Heavy precipitations  Wind > 20 kt
SIGMETs :     Misc.  Thunderstorms  Icing  Turbulence  Mountain Waves  Volcanic Ashes







- Airport Elevation : 137 ft


LIPS - Istrana AFB Treviso

CURRENT METAR :
  • 212355Z 06005KT CAVOK 23/20 Q1011 RMK SKC VIS MIN 9999 WIND THR26 06004KT WIND THR08 06002KT BLU

EXPIRED METARs :
  • 212255Z 05004KT 9999 FEW100 24/21 Q1011 RMK FEW VIS MIN 9999 WIND THR26 00000KT WIND THR08 06003KT BLU
  • 212155Z 04004KT 9999 FEW090 24/20 Q1011 RMK SCT SCT200 VIS MIN 9999 WIND THR26 04003KT WIND THR08 04003KT BLU

TAF TAF LIPS
Valid from the 22 at 00:00 until the 22 at 09:00 UTC


212300Z 2200/2209 VRB03KT CAVOK
No reported NOTAMs for that airfield.



MET'MAP, your aeronautical weather chart ! - Copyright ORBIFLY December 2007 - Disclaimer

ORBIFLY MET'MAP TEAM :

Programming & Development : Alexandra Zaïnal
Concept & Development : Baudouin d'Aumeries
Co-Development & Prog : Marc-Olivier Méhu
Technical & hardware support : Manuel Goepfert

Contact : metmap@orbifly.com




SOURCES & CREDITS :

   NOAA